www.pogodaiklimat.ru

Погода и климат >> Архив погоды >> Таиланд >> Лаем-Чабанг


ПОГОДА в Лаем-Чабанге

  • Прогноз погоды в Лаем-Чабанге
  • Монитор погоды в Лаем-Чабанге

АРХИВ ПОГОДЫ в Лаем-Чабанге

Время (UTC), дата Ветер
(напр.,м/с)
 
Видим.   Явления Облачность Т
(С)
Тd
(С)
f
(%)
Тe
(С)
Тes
(С)
Комфортность P
(гПа)
Po
(гПа)
Тmin
(С)
Tmax
(С)
R
(мм)
R24
(мм)
S
(см)
00 14.04 Ю 6 8000 м дымка 3/1 600 м
[Cu hum Cs]
+28.5 +24.9 81 +41 +41 опасность
перегрева
1010.2 1000.9 +28.0
03 14.04 ЮЗ 8 10 км 3/1 600 м
[Cu hum Cs]
+33.0 +25.6 65 +48 +50 опасность
перегрева
1012.2 1003.0
06 14.04 ЮЗ 6 12 км 4/3 600 м
[Cu hum Cs]
+34.8 +26.0 60 +50 +56 опасность
перегрева
1010.9 1001.8
09 14.04 ЮЗ 10 10 км 9/3 300 м
[Cb cap Ac As Cs]
+31.0 +24.6 69 +44 +44 опасность
перегрева
1009.7 1000.5
12 14.04 Ю 10 10 км 9/3 300 м
[Cb cap Ac As Cs]
+29.5 +24.5 75 +42 +42 опасность
перегрева
1009.7 1000.5 +35.0
00 15.04 Ю 6 8000 м дымка 6/1 600 м
[Cu med, cong Cs]
+28.5 +26.4 88 +43 +44 опасность
перегрева
1010.3 1001.0 +27.8
03 15.04 ЮЗ 6 10 км 4/1 600 м
[Cu med, cong Cs]
+33.5 +25.8 64 +49 +54 опасность
перегрева
1012.1 1003.0
06 15.04 Ю 4 12 км 4/1 600 м
[Cu med, cong Cs]
+35.0 +26.0 60 +51 +63 опасность
перегрева
1011.0 1001.9
09 15.04 ЮЗ 8 12 км 4/1 600 м
[Cu med, cong Cs]
+34.0 +24.8 59 +47 +48 опасность
перегрева
1009.9 1000.7
12 15.04 ЮЗ 10 10 км 4/1 600 м
[Cu med, cong Cs]
+30.3 +25.6 76 +45 +45 опасность
перегрева
1010.1 1000.9 +35.5
00 16.04 штиль 0 8000 м дымка 3/1 600 м
[Cu hum Cs]
+28.6 +25.6 84 +42 +44 опасность
перегрева
1010.8 1001.5 +28.0
03 16.04 ЮЗ 6 10 км 3/1 600 м
[Cu hum Cs]
+32.8 +25.3 65 +47 +52 опасность
перегрева
1012.8 1003.6
06 16.04 ЮЗ 4 12 км 3/1 600 м
[Cu hum Cs]
+34.5 +25.4 59 +49 +61 опасность
перегрева
1011.5 1002.4
09 16.04 ЮЗ 6 12 км 3/1 600 м
[Cu med, cong Cs]
+33.5 +24.2 58 +45 +48 опасность
перегрева
1010.3 1001.1
12 16.04 Ю 8 10 км 3/1 600 м
[Cu hum Cs]
+30.0 +24.3 72 +42 +42 опасность
перегрева
1010.9 1001.6 +35.0
00 17.04 Ю 6 9000 м дымка 3/1 600 м
[Cu hum Cs]
+29.0 +26.2 85 +44 +44 опасность
перегрева
1010.4 1001.1 +28.5
03 17.04 Ю 4 10 км 4/3 600 м
[Cu hum Cs]
+33.0 +26.0 67 +49 +56 опасность
перегрева
1012.5 1003.3
06 17.04 ЮЗ 10 12 км 4/3 600 м
[Cu hum Cs]
+34.0 +26.4 65 +51 +52 опасность
перегрева
1010.6 1001.4
09 17.04 ЮЗ 10 12 км 4/3 600 м
[Cu hum Cs]
+33.0 +25.3 64 +47 +47 опасность
перегрева
1009.5 1000.3
12 17.04 ЮЗ 10 10 км 3/1 600 м
[Cu hum Cs]
+30.2 +24.9 73 +43 +43 опасность
перегрева
1010.0 1000.8 +34.5
00 18.04 Ю 4 10 км 3/1 600 м
[Cu hum Cs]
+29.2 +26.1 83 +44 +45 опасность
перегрева
1009.5 1000.3 +28.6
03 18.04 ЮЗ 10 12 км 3/1 600 м
[Cu hum Cs]
+32.8 +26.1 68 +49 +49 опасность
перегрева
1011.5 1002.3
06 18.04 ЮЗ 8 12 км 6/1 300 м
[Cb cap Cs]
+33.5 +26.6 67 +50 +54 опасность
перегрева
1009.9 1000.8
09 18.04 Ю 10 12 км 8/3 300 м
[Cb cap Cs]
+32.5 +25.5 67 +47 +47 опасность
перегрева
1008.9 999.7
12 18.04 Ю 12 10 км 8/3 600 м
[Cu med, cong Cs]
+30.5 +24.8 72 +44 +44 опасность
перегрева
1009.0 999.8 +34.8
00 19.04 Ю 4 10 км 4/1 600 м
[Cu hum Cs]
+29.5 +26.0 81 +44 +45 опасность
перегрева
1008.3 999.1 +28.8
03 19.04 ЮЗ 8 12 км 4/1 600 м
[Cu hum Cs]
+32.0 +26.4 72 +48 +51 опасность
перегрева
1010.4 1001.2
06 19.04 ЮЗ 6 12 км 4/1 600 м
[Cu hum Cs]
+34.0 +26.4 65 +51 +58 опасность
перегрева
1008.6 999.5
09 19.04 Ю 8 12 км 4/4 600 м
[Cu hum Cs]
+33.0 +25.3 64 +47 +48 опасность
перегрева
1007.4 998.2
12 19.04 Ю 10 10 км 3/1 600 м
[Cu hum Cs]
+31.0 +25.4 72 +45 +45 опасность
перегрева
1007.7 998.6 +34.2
00 20.04 Ю 4 10 км 3/1 600 м
[Cu hum Cs]
+29.3 +26.8 86 +46 +46 опасность
перегрева
1007.3 998.1 +28.5
03 20.04 ЮЗ 6 12 км 3/1 600 м
[Cu hum Cs]
+33.0 +26.0 67 +49 +54 опасность
перегрева
1009.3 1000.2
06 20.04 Ю 4 12 км 3/1 600 м
[Cu hum Cs]
+34.5 +26.9 65 +52 +65 опасность
перегрева
1007.0 997.9
09 20.04 Ю 8 12 км 3/1 600 м
[Cu hum Cs]
+33.5 +25.8 64 +49 +50 опасность
перегрева
1006.0 996.9
12 20.04 Ю 10 10 км 3/1 600 м
[Cu hum Cs]
+30.8 +24.7 70 +44 +44 опасность
перегрева
1006.4 997.2 +35.0

 

Местоположение метеостанции Лаем-Чабанг (Таиланд): широта 15.08 долгота 100.88 высота над уровнем моря 82 м.

В архиве по умолчанию представлена погода в Лаем-Чабанге за последнюю неделю. Архивные данные за месяц целиком и за предыдущие месяцы, начиная с января 2011 года, Вы можете получить, выбрав интересующий диапазон дат из раскрывающегося списка и нажав кнопку "Ввод!".


*Определитесь, кто Вы:
робот инопланетянин человек

Внимание! Время в таблицах - всемирное. Для получения местного времени необходимо прибавить поправку, которая равна 7 ч.

Смотрите также архив погоды в соседних городах и на ближайших метеорологических станциях:

Погода в Буа Чум (Таиланд) (39 км)
Погода в Лопбури (Таиланд) (43 км)
Погода в Такфа Агромете (Таиланд) (51 км)
Погода в Сарабури (Таиланд) (62 км)
Погода в Аюттхая (Таиланд) (65 км)
Погода в Вичан Бури (Таиланд) (66 км)
Погода в Пакчонг Агромете (Таиланд) (69 км)
Погода в Чайнат Агромете (Таиланд) (76 км)
Погода в Утай Тани (Таиланд) (96 км)
Погода в Суфанбури (Таиланд) (105 км)

Пояснения к столбцам:

Ветер - указаны скорость ветра в м/с - средняя за 10 мин, порывы в срок и между сроками (в фигурных скобках) и направление, откуда дует ветер: С - северный, СВ - северо-восточный, В - восточный, ЮВ - юго-восточный, Ю - южный, ЮЗ - юго-западный, З - западный, СЗ - северо-западный.
Видимость - горизонтальная дальность видимости в метрах или километрах. При видимости от 1 до 10 км при отсутствии осадков обычно наблюдается дымка, при ухудшении видимости до 1 км и менее - туман. В сухую погоду видимость может ухудшаться дымом, пылью или мглою.
Явления - указаны атмосферные явления, наблюдавшиеся в срок или в последний час перед сроком; фигурными скобками обозначены явления, наблюдавшиеся между сроками (за 1-3 часа до срока); квадратными скобками обозначены град или гололедные отложения с указанием их диаметра в мм.
Облачность - указаны через наклонную черту общая и нижняя облачность в баллах и высота нижней границы облаков в метрах; квадратными скобками обозначены формы облаков: Ci - перистые, Cs - перисто-слоистые, Cc - перисто-кучевые, Ac - высококучевые, As - высокослоистые, Sc - слоисто-кучевые, Ns - слоисто-дождевые, Cu - кучевые, Cb - кучево-дождевые. Подробнее классификацию облаков см. в Атласе облаков (PDF).
T - Температура воздуха - температура, измеренная на высоте 2 м над землей.
Td - Температура точки росы - температура, при понижении до которой содержащийся в воздухе водяной пар достигнет насыщения.
f - Относительная влажность воздуха - влажноcть воздуха, измеренная на высоте 2 м над землей.
Te - Эффективная температура - температура, которую ощущает одетый по сезону человек в тени. Характеристика душности погоды. При расчете учитывается влияние влажности воздуха и скорости ветра на теплоощущения человека.
Tes - Эффективная температура на солнце - температура, которую ощущает человек, с поправкой на солнечный нагрев. Характеристика знойности погоды. Зависит от высоты солнца над горизонтом, облачности и скорости ветра. Ночью, в пасмурную погоду, а также при ветре 12 м/с и более поправка равна нулю.
P - Атмосферное давление - приведенное к уровню моря атмосферное давление.
Po - Атмосферное давление - измеренное на уровне метеостанции атмосферное давление.
Tmin - Минимальная температура - минимум температуры воздуха на высоте 2 м над землей.
Tmax - Максимальная температура - максимум температуры воздуха на высоте 2 м над землей.
R - Количество осадков - Количество выпавших осадков за период времени, мм. При наведении курсора мыши на число - период времени, за который выпало указанное количество осадков.
R24 - Количество осадков - Количество выпавших осадков за 24 часа, мм.
S - Снежный покров - Высота снежного покрова, см. При наведении курсора мыши на число - состояние снежного покрова и степень покрытия местности в баллах.